GW4032 Weather Reports


Display with metric or nautical units.
time (UTC)temp
F
wind
direction
speed
MPH
gust
MPH
rain 1hr
in
rain 24hr
in
rain mn
in
humidity
%
barometer
mb
20260504110315 63 212 2.0 3.0 0.00 0.00 0.00 60 999.0
20260504100317 65 209 8.0 9.0 0.00 0.00 0.00 58 999.0
20260504081814 64 234 4.0 7.0 0.00 0.00 0.00 63 1000.0
20260504081314 64 198 5.0 5.0 0.00 0.00 0.00 63 1000.0
20260504080814 65 195 6.0 8.0 0.00 0.00 0.00 62 1000.0
20260504080316 65 180 4.0 4.0 0.00 0.00 0.00 62 1000.0
20260504070315 66 192 5.0 7.0 0.00 0.00 0.00 61 1000.0
20260504050314 66 200 6.0 6.0 0.00 0.00 0.00 60 1001.0
20260504045814 66 211 4.0 5.0 0.00 0.00 0.00 60 1001.0
20260504045314 66 202 5.0 6.0 0.00 0.00 0.00 60 1001.0
20260504044814 66 197 3.0 3.0 0.00 0.00 0.00 60 1001.0
20260504044314 67 214 6.0 8.0 0.00 0.00 0.00 59 1001.0
20260504043815 67 198 6.0 7.0 0.00 0.00 0.00 59 1001.0
20260504043314 67 175 6.0 8.0 0.00 0.00 0.00 59 1001.0
20260504042814 67 216 5.0 6.0 0.00 0.00 0.00 58 1001.0
20260504042315 67 188 4.0 6.0 0.00 0.00 0.00 58 1001.0
20260504041814 67 201 6.0 8.0 0.00 0.00 0.00 58 1001.0
20260504041315 67 198 5.0 5.0 0.00 0.00 0.00 58 1001.0
20260504040814 67 203 6.0 6.0 0.00 0.00 0.00 57 1001.0
20260504040316 67 190 7.0 8.0 0.00 0.00 0.00 57 1001.0
20260504035815 67 200 5.0 6.0 0.00 0.00 0.00 57 1001.0
20260504035314 67 202 6.0 7.0 0.00 0.00 0.00 56 1001.0
20260504034814 67 178 4.0 5.0 0.00 0.00 0.00 56 1001.0
20260504034314 68 186 5.0 5.0 0.00 0.00 0.00 55 1001.0
20260504033814 67 186 4.0 7.0 0.00 0.00 0.00 56 1001.0
20260504033314 68 187 5.0 5.0 0.00 0.00 0.00 55 1001.0
20260504032814 68 193 5.0 7.0 0.00 0.00 0.00 54 1001.0
20260504032315 68 191 4.0 4.0 0.00 0.00 0.00 54 1001.0
20260504031814 68 191 5.0 6.0 0.00 0.00 0.00 53 1001.0
20260504031314 68 196 6.0 7.0 0.00 0.00 0.00 53 1001.0
20260504030814 68 178 6.0 6.0 0.00 0.00 0.00 53 1001.0
20260504030314 68 190 5.0 6.0 0.00 0.00 0.00 52 1001.0
20260504025814 68 190 5.0 5.0 0.00 0.00 0.00 52 1001.0
20260504025314 69 177 5.0 5.0 0.00 0.00 0.00 52 1001.0
20260504024814 69 183 6.0 6.0 0.00 0.00 0.00 51 1001.0
20260504024314 69 198 6.0 6.0 0.00 0.00 0.00 51 1001.0
20260504023815 69 194 4.0 6.0 0.00 0.00 0.00 51 1001.0
20260504023315 69 189 4.0 5.0 0.00 0.00 0.00 51 1001.0
20260504022814 69 192 5.0 5.0 0.00 0.00 0.00 51 1001.0
20260504022314 69 207 7.0 8.0 0.00 0.00 0.00 50 1001.0
20260504021814 69 200 5.0 5.0 0.00 0.00 0.00 50 1001.0
20260504021321 69 207 6.0 6.0 0.00 0.00 0.00 50 1001.0
20260504020814 69 199 4.0 5.0 0.00 0.00 0.00 50 1001.0
20260504020314 69 197 4.0 5.0 0.00 0.00 0.00 50 1001.0
20260504015815 69 200 5.0 6.0 0.00 0.00 0.00 50 1001.0
20260504015314 70 201 5.0 7.0 0.00 0.00 0.00 50 1001.0
20260504014814 70 189 6.0 7.0 0.00 0.00 0.00 49 1001.0
20260504014314 70 205 6.0 8.0 0.00 0.00 0.00 49 1001.0
20260504013814 71 205 5.0 5.0 0.00 0.00 0.00 48 1001.0
20260504013314 71 199 7.0 8.0 0.00 0.00 0.00 48 1001.0
20260504012814 71 200 6.0 7.0 0.00 0.00 0.00 49 1001.0
20260504012314 71 197 6.0 7.0 0.00 0.00 0.00 48 1001.0
20260504011814 71 185 7.0 8.0 0.00 0.00 0.00 48 1001.0
20260504011314 71 222 3.0 4.0 0.00 0.00 0.00 49 1001.0
20260504010814 71 196 5.0 5.0 0.00 0.00 0.00 49 1001.0
20260504010314 72 201 4.0 4.0 0.00 0.00 0.00 49 1001.0
20260504005814 72 195 4.0 5.0 0.00 0.00 0.00 48 1001.0
20260504005314 72 196 4.0 5.0 0.00 0.00 0.00 48 1001.0
20260504004814 73 240 4.0 6.0 0.00 0.00 0.00 48 1001.0
20260504004315 73 190 4.0 5.0 0.00 0.00 0.00 47 1001.0
20260504003814 73 201 4.0 4.0 0.00 0.00 0.00 46 1001.0
20260504003314 74 196 4.0 4.0 0.00 0.00 0.00 46 1001.0
20260504002815 74 183 3.0 6.0 0.00 0.00 0.00 45 1001.0
20260504002314 74 198 6.0 6.0 0.00 0.00 0.00 45 1001.0
20260504001814 74 185 4.0 5.0 0.00 0.00 0.00 45 1001.0
20260504001314 74 189 5.0 5.0 0.00 0.00 0.00 44 1001.0
20260504000814 74 197 6.0 7.0 0.00 0.00 0.00 44 1001.0
20260504000316 75 191 5.0 6.0 0.00 0.00 0.00 43 1001.0
20260503235814 75 199 6.0 6.0 0.00 0.00 0.00 43 1001.0
20260503235314 75 208 5.0 6.0 0.00 0.00 0.00 43 1001.0
20260503234815 76 198 6.0 8.0 0.00 0.00 0.00 41 1001.0
20260503234315 77 202 3.0 4.0 0.00 0.00 0.00 41 1001.0
20260503233815 77 201 5.0 6.0 0.00 0.00 0.00 40 1001.0
20260503233314 77 201 6.0 8.0 0.00 0.00 0.00 40 1001.0
20260503232814 78 201 4.0 5.0 0.00 0.00 0.00 40 1001.0
20260503232314 78 186 4.0 9.0 0.00 0.00 0.00 39 1001.0
20260503231814 78 188 7.0 9.0 0.00 0.00 0.00 39 1001.0
20260503231314 78 203 8.0 9.0 0.00 0.00 0.00 38 1001.0
20260503230814 78 232 5.0 8.0 0.00 0.00 0.00 39 1001.0
20260503230314 78 207 6.0 10.0 0.00 0.00 0.00 38 1001.0
20260503225814 78 208 9.0 10.0 0.00 0.00 0.00 37 1001.0
20260503225314 78 219 8.0 8.0 0.00 0.00 0.00 37 1001.0
20260503224814 79 200 11.0 13.0 0.00 0.00 0.00 37 1001.0
20260503224314 79 207 3.0 6.0 0.00 0.00 0.00 35 1001.0
20260503223815 79 204 5.0 6.0 0.00 0.00 0.00 35 1001.0
20260503223314 79 198 5.0 5.0 0.00 0.00 0.00 35 1001.0
20260503222814 79 204 5.0 13.0 0.00 0.00 0.00 34 1001.0
20260503222314 79 207 10.0 11.0 0.00 0.00 0.00 35 1001.0
20260503221814 79 208 8.0 8.0 0.00 0.00 0.00 34 1001.0
20260503221314 78 218 9.0 11.0 0.00 0.00 0.00 34 1001.0
20260503220814 79 224 9.0 10.0 0.00 0.00 0.00 35 1002.0
20260503220314 80 196 9.0 9.0 0.00 0.00 0.00 34 1002.0
20260503215814 79 186 6.0 8.0 0.00 0.00 0.00 35 1002.0
20260503215314 79 224 9.0 11.0 0.00 0.00 0.00 35 1002.0
20260503214814 79 197 5.0 7.0 0.00 0.00 0.00 35 1002.0
20260503214315 80 181 7.0 9.0 0.00 0.00 0.00 34 1002.0
20260503213814 80 183 2.0 4.0 0.00 0.00 0.00 33 1002.0
20260503213314 80 243 5.0 5.0 0.00 0.00 0.00 35 1002.0
20260503212814 79 270 6.0 13.0 0.00 0.00 0.00 35 1002.0
20260503212314 79 208 4.0 7.0 0.00 0.00 0.00 34 1003.0
20260503211814 79 230 3.0 9.0 0.00 0.00 0.00 34 1003.0
20260503211316 79 225 7.0 11.0 0.00 0.00 0.00 36 1003.0
20260503210814 80 194 5.0 7.0 0.00 0.00 0.00 35 1003.0
20260503210314 80 210 7.0 7.0 0.00 0.00 0.00 35 1003.0
20260503205814 80 180 6.0 9.0 0.00 0.00 0.00 36 1003.0
20260503205314 80 197 4.0 4.0 0.00 0.00 0.00 35 1003.0
20260503204814 80 176 8.0 8.0 0.00 0.00 0.00 33 1003.0
20260503204314 80 198 1.0 5.0 0.00 0.00 0.00 35 1003.0
20260503203814 79 261 7.0 7.0 0.00 0.00 0.00 32 1003.0
20260503203315 79 176 10.0 10.0 0.00 0.00 0.00 33 1003.0
20260503202814 79 187 3.0 3.0 0.00 0.00 0.00 34 1003.0
20260503202314 79 278 10.0 13.0 0.00 0.00 0.00 35 1003.0
20260503201814 79 225 4.0 5.0 0.00 0.00 0.00 34 1003.0
20260503201314 78 201 7.0 7.0 0.00 0.00 0.00 35 1003.0
20260503200814 79 201 5.0 7.0 0.00 0.00 0.00 35 1004.0
20260503200314 79 202 5.0 5.0 0.00 0.00 0.00 37 1004.0
20260503195814 79 223 3.0 5.0 0.00 0.00 0.00 36 1004.0
20260503195314 78 202 10.0 11.0 0.00 0.00 0.00 37 1004.0
20260503194814 78 170 6.0 7.0 0.00 0.00 0.00 36 1004.0
20260503194314 77 206 6.0 7.0 0.00 0.00 0.00 37 1004.0
20260503193814 76 230 11.0 12.0 0.00 0.00 0.00 37 1004.0
20260503193315 77 181 7.0 12.0 0.00 0.00 0.00 37 1005.0
20260503192814 78 236 6.0 9.0 0.00 0.00 0.00 36 1005.0
20260503192314 77 185 2.0 6.0 0.00 0.00 0.00 38 1005.0
20260503191814 77 193 6.0 7.0 0.00 0.00 0.00 37 1005.0
20260503191314 77 265 4.0 9.0 0.00 0.00 0.00 36 1005.0
20260503190814 75 200 3.0 5.0 0.00 0.00 0.00 37 1005.0
20260503190315 76 184 10.0 12.0 0.00 0.00 0.00 39 1005.0
20260503185815 76 196 5.0 8.0 0.00 0.00 0.00 37 1005.0
20260503185316 76 201 4.0 5.0 0.00 0.00 0.00 39 1005.0
20260503184814 77 203 4.0 4.0 0.00 0.00 0.00 35 1005.0
20260503184314 75 219 7.0 11.0 0.00 0.00 0.00 36 1005.0
20260503183814 75 188 12.0 15.0 0.00 0.00 0.00 36 1005.0
20260503183314 76 204 4.0 5.0 0.00 0.00 0.00 36 1006.0
20260503182814 75 203 6.0 8.0 0.00 0.00 0.00 37 1006.0
20260503182315 74 197 10.0 10.0 0.00 0.00 0.00 36 1005.0
20260503181814 74 180 2.0 4.0 0.00 0.00 0.00 38 1005.0
20260503181314 74 213 8.0 11.0 0.00 0.00 0.00 36 1005.0
20260503180814 74 162 1.0 2.0 0.00 0.00 0.00 37 1006.0
20260503180314 74 234 3.0 5.0 0.00 0.00 0.00 38 1006.0
20260503175814 73 199 10.0 10.0 0.00 0.00 0.00 38 1006.0
20260503175315 74 169 6.0 6.0 0.00 0.00 0.00 41 1006.0
20260503174815 72 212 13.0 14.0 0.00 0.00 0.00 38 1006.0
20260503174314 72 193 9.0 11.0 0.00 0.00 0.00 38 1006.0
20260503173814 72 200 7.0 7.0 0.00 0.00 0.00 37 1006.0
20260503173314 72 224 7.0 14.0 0.00 0.00 0.00 39 1006.0
20260503172814 71 169 4.0 5.0 0.00 0.00 0.00 39 1006.0
20260503172314 72 199 3.0 4.0 0.00 0.00 0.00 40 1006.0
20260503171814 72 192 4.0 7.0 0.00 0.00 0.00 42 1006.0
20260503171315 71 196 8.0 12.0 0.00 0.00 0.00 38 1006.0
20260503170814 71 193 4.0 5.0 0.00 0.00 0.00 39 1006.0
20260503170314 70 220 11.0 14.0 0.00 0.00 0.00 40 1006.0
20260503150814 62 201 9.0 10.0 0.00 0.00 0.00 49 1008.0
20260503150314 61 200 9.0 14.0 0.00 0.00 0.00 50 1008.0
20260503140314 56 176 6.0 6.0 0.00 0.00 0.00 61 1009.0
20260503131314 50 234 5.0 6.0 0.00 0.00 0.00 68 1009.0
20260503130814 50 197 6.0 7.0 0.00 0.00 0.00 68 1009.0
20260503130314 50 191 5.0 5.0 0.00 0.00 0.00 70 1009.0